Date String (YYYY-MM-DD hh:mm:ss) UTC,Instrument flags,absolute air pressure of the measurement (hPa),sample flow rate (lpm),inlet stack bypass flow (lpm),air temperature of the measurement (°C),ambient temperature measured by the external sensor (°C),aerosol sample conditioner tube jacket temperature (°C),OPC LED temperature (°C),internal box temperature (°C),relative humidity of the measurement (%),span deviation,mass concentration of particles derived from Lorenz-Mie calculation of OPC scattering (μg/m³),mass concentration of particles derived from Lorenz-Mie calculation of OPC scattering (μg/m³),mass concentration of particles derived from Lorenz-Mie calculation of OPC scattering (μg/m³)
DateTimeUTC,F1_M11,P_M11,Q1_M11,Q2_M11,T1_M11,T2_M11,T3_M11,T4_M11,T5_M11,U1_M11,ZSPAN_M11,X0_M11,X2_M11,X1_M11
2023-07-13 11:00:00,SystemResetWarning,0830.7,5.01,000.00,029.5,028.4,000.0,037.9,031.2,24.4,0000.0,0007.36,0003.67,0003.18
2023-07-13 11:01:00,SystemResetWarning,0830.7,4.98,000.00,029.5,028.4,000.0,038.0,031.2,23.8,0000.0,0007.42,0003.67,0003.17
2023-07-13 11:02:00,SystemResetWarning,0830.7,5.00,000.00,029.6,028.5,000.0,038.0,031.2,23.8,0000.0,0007.39,0003.67,0003.16
2023-07-13 11:03:00,SystemResetWarning,0830.6,5.01,000.00,029.6,028.3,000.0,038.0,031.3,23.4,0000.0,0007.44,0003.69,0003.16
2023-07-13 11:04:00,SystemResetWarning,0830.6,4.99,000.00,029.6,026.4,000.0,037.9,031.0,23.0,0000.0,0007.59,0003.71,0003.16
2023-07-13 11:05:00,SystemResetWarning,0830.6,5.01,000.00,029.5,025.3,000.0,037.7,030.8,23.1,0000.0,0007.70,0003.72,0003.15
2023-07-13 11:06:00,SystemResetWarning,0830.5,5.01,000.00,029.4,025.3,000.0,037.7,030.6,22.5,0000.0,0007.49,0003.71,0003.14
2023-07-13 11:07:00,SystemResetWarning,0830.5,5.00,000.00,029.3,025.6,000.0,037.8,030.5,22.4,0000.0,0006.81,0003.65,0003.14
2023-07-13 11:08:00,SystemResetWarning,0830.6,5.00,000.00,029.2,026.0,000.0,037.8,030.6,22.5,0000.0,0006.49,0003.61,0003.16
2023-07-13 11:09:00,SystemResetWarning,0830.6,4.99,000.00,029.2,026.4,000.0,037.8,030.6,23.3,0000.0,0006.57,0003.62,0003.16
2023-07-13 11:10:00,SystemResetWarning,0830.6,5.00,000.00,029.2,026.8,000.0,037.8,030.7,23.6,0000.0,0006.56,0003.64,0003.18
2023-07-13 11:11:00,SystemResetWarning,0830.6,5.00,000.00,029.3,027.1,000.0,037.8,030.8,22.9,0000.0,0006.30,0003.65,0003.19
2023-07-13 11:12:00,SystemResetWarning,0830.6,5.00,000.00,029.3,027.3,000.0,037.8,030.8,22.5,0000.0,0006.20,0003.66,0003.19
2023-07-13 11:13:00,SystemResetWarning,0830.6,5.00,000.00,029.3,027.5,000.0,037.8,030.8,22.2,0000.0,0006.10,0003.66,0003.20
2023-07-13 11:14:00,SystemResetWarning,0830.7,5.00,000.00,029.3,027.7,000.0,037.8,030.9,21.9,0000.0,0006.23,0003.67,0003.20
2023-07-13 11:15:00,SystemResetWarning,0830.7,5.00,000.00,029.3,027.8,000.0,037.8,030.9,21.8,0000.0,0006.25,0003.67,0003.21
2023-07-13 11:16:00,SystemResetWarning,0830.7,5.00,000.00,029.3,027.9,000.0,037.8,030.9,21.7,0000.0,0006.30,0003.66,0003.22
2023-07-13 11:17:00,SystemResetWarning,0830.7,5.00,000.00,029.4,028.0,000.0,037.8,031.0,21.7,0000.0,0006.31,0003.67,0003.22
2023-07-13 11:18:00,SystemResetWarning,0830.7,4.99,000.00,029.4,028.1,000.0,037.8,031.0,21.9,0000.0,0006.38,0003.69,0003.24
2023-07-13 11:19:00,SystemResetWarning,0830.7,4.99,000.00,029.4,028.2,000.0,037.9,031.1,21.6,0000.0,0006.42,0003.70,0003.23
2023-07-13 11:20:00,SystemResetWarning,0830.7,5.01,000.00,029.5,028.2,000.0,037.9,031.1,21.8,0000.0,0006.90,0003.69,0003.22
2023-07-13 11:21:00,SystemResetWarning,0830.7,5.01,000.00,029.5,028.3,000.0,037.9,031.1,21.1,0000.0,0007.18,0003.69,0003.21
2023-07-13 11:22:00,SystemResetWarning,0830.6,4.99,000.00,029.5,028.3,000.0,037.9,031.2,21.2,0000.0,0007.19,0003.69,0003.21
2023-07-13 11:23:00,SystemResetWarning,0830.6,4.99,000.00,029.6,028.4,000.0,037.9,031.2,21.1,0000.0,0007.00,0003.65,0003.21
2023-07-13 11:24:00,SystemResetWarning,0830.7,5.01,000.00,029.6,028.4,000.0,038.0,031.2,21.1,0000.0,0006.85,0003.63,0003.21
2023-07-13 11:25:00,SystemResetWarning,0830.7,5.00,000.00,029.6,028.5,000.0,038.0,031.3,21.0,0000.0,0006.82,0003.63,0003.21
2023-07-13 11:26:00,SystemResetWarning,0830.7,4.99,000.00,029.6,027.3,000.0,037.9,031.2,21.1,0000.0,0006.70,0003.62,0003.21
2023-07-13 11:27:00,SystemResetWarning,0830.7,5.00,000.00,029.5,025.6,000.0,037.8,030.9,21.0,0000.0,0006.33,0003.61,0003.21
2023-07-13 11:28:00,SystemResetWarning,0830.7,5.00,000.00,029.4,025.3,000.0,037.8,030.6,21.3,0000.0,0006.58,0003.62,0003.20
2023-07-13 11:29:00,SystemResetWarning,0830.7,5.01,000.00,029.3,025.5,000.0,037.8,030.5,21.3,0000.0,0006.47,0003.61,0003.20
2023-07-13 11:30:00,SystemResetWarning,0830.8,5.00,000.00,029.3,025.9,000.0,037.8,030.5,21.4,0000.0,0006.51,0003.60,0003.19
2023-07-13 11:31:00,SystemResetWarning,0830.8,5.00,000.00,029.2,026.3,000.0,037.8,030.6,21.4,0000.0,0007.17,0003.58,0003.19
2023-07-13 11:32:00,SystemResetWarning,0830.8,5.00,000.00,029.3,026.7,000.0,037.8,030.7,22.5,0000.0,0006.90,0003.59,0003.18
2023-07-13 11:33:00,SystemResetWarning,0830.8,5.00,000.00,029.3,027.0,000.0,037.8,030.8,22.3,0000.0,0007.95,0003.60,0003.17
2023-07-13 11:34:00,SystemResetWarning,0830.9,5.00,000.00,029.3,027.2,000.0,037.8,030.8,22.4,0000.0,0008.11,0003.62,0003.17
2023-07-13 11:35:00,SystemResetWarning,0830.8,5.00,000.00,029.3,027.5,000.0,037.8,030.9,21.6,0000.0,0008.11,0003.60,0003.17
2023-07-13 11:36:00,SystemResetWarning,0830.9,5.00,000.00,029.3,027.6,000.0,037.8,030.9,21.8,0000.0,0008.13,0003.60,0003.17
2023-07-13 11:37:00,SystemResetWarning,0830.9,5.00,000.00,029.3,027.8,000.0,037.8,030.9,21.6,0000.0,0008.12,0003.60,0003.17
2023-07-13 11:38:00,SystemResetWarning,0830.9,5.00,000.00,029.4,027.9,000.0,037.8,031.0,21.4,0000.0,0008.10,0003.61,0003.18
2023-07-13 11:39:00,SystemResetWarning,0830.9,4.99,000.00,029.4,028.0,000.0,037.9,031.0,21.5,0000.0,0008.06,0003.61,0003.18
2023-07-13 11:40:00,SystemResetWarning,0830.9,4.99,000.00,029.4,028.1,000.0,037.9,031.0,21.8,0000.0,0008.22,0003.61,0003.18
2023-07-13 11:41:00,SystemResetWarning,0830.9,5.01,000.00,029.4,028.2,000.0,037.9,031.1,21.4,0000.0,0008.70,0003.64,0003.19
2023-07-13 11:42:00,SystemResetWarning,0830.9,5.00,000.00,029.5,028.3,000.0,037.9,031.1,21.4,0000.0,0008.10,0003.66,0003.20
2023-07-13 11:43:00,SystemResetWarning,0830.9,5.00,000.00,029.5,028.3,000.0,037.9,031.1,21.5,0000.0,0008.15,0003.63,0003.20
2023-07-13 11:44:00,SystemResetWarning,0830.9,5.00,000.00,029.5,028.4,000.0,038.0,031.2,21.2,0000.0,0007.41,0003.62,0003.20
2023-07-13 11:45:00,SystemResetWarning,0830.9,5.00,000.00,029.6,028.4,000.0,038.0,031.2,21.0,0000.0,0007.19,0003.62,0003.20
2023-07-13 11:46:00,SystemResetWarning,0830.9,5.00,000.00,029.6,028.5,000.0,038.0,031.2,21.0,0000.0,0007.31,0003.64,0003.19
2023-07-13 11:47:00,SystemResetWarning,0830.9,5.00,000.00,029.6,028.0,000.0,038.0,031.2,20.8,0000.0,0007.55,0003.64,0003.19
2023-07-13 11:48:00,SystemResetWarning,0830.8,5.00,000.00,029.6,026.1,000.0,037.9,031.0,20.9,0000.0,0007.93,0003.68,0003.20
2023-07-13 11:49:00,SystemResetWarning,0830.9,5.00,000.00,029.5,025.4,000.0,037.8,030.8,20.9,0000.0,0007.96,0003.69,0003.19
2023-07-13 11:50:00,SystemResetWarning,0830.8,5.01,000.00,029.4,025.5,000.0,037.8,030.6,21.2,0000.0,0008.32,0003.67,0003.18
2023-07-13 11:51:00,SystemResetWarning,0830.8,5.00,000.00,029.3,025.9,000.0,037.8,030.6,21.4,0000.0,0008.33,0003.63,0003.17
2023-07-13 11:52:00,SystemResetWarning,0830.9,5.00,000.00,029.3,026.3,000.0,037.8,030.6,21.3,0000.0,0007.73,0003.59,0003.17
2023-07-13 11:53:00,SystemResetWarning,0830.9,4.99,000.00,029.3,026.6,000.0,037.8,030.7,21.5,0000.0,0007.66,0003.57,0003.17
2023-07-13 11:54:00,SystemResetWarning,0830.9,5.00,000.00,029.3,026.9,000.0,037.8,030.8,21.6,0000.0,0008.34,0003.57,0003.17
2023-07-13 11:55:00,SystemResetWarning,0830.9,5.00,000.00,029.3,027.2,000.0,037.8,030.8,21.6,0000.0,0008.70,0003.56,0003.16
2023-07-13 11:56:00,SystemResetWarning,0830.9,5.00,000.00,029.3,027.4,000.0,037.8,030.9,21.7,0000.0,0008.59,0003.54,0003.15
2023-07-13 11:57:00,SystemResetWarning,0830.9,4.98,000.00,029.3,027.6,000.0,037.9,030.9,22.0,0000.0,0008.61,0003.55,0003.16
2023-07-13 11:58:00,SystemResetWarning,0830.9,4.99,000.00,029.3,027.7,000.0,037.9,030.9,21.1,0000.0,0008.50,0003.56,0003.15
2023-07-13 11:59:00,SystemResetWarning,0830.9,5.00,000.00,029.4,027.9,000.0,037.9,031.0,20.7,0000.0,0008.04,0003.53,0003.14
